PHRJV EHSE-EHLE

Flight info

Callsign PHRJV
Flight time N/A
Altitude 13000
Route PESER DCT KUDAD DCT LARAS DCT LEKKO DCT PAM DCT LILSI
Aircraft PC12/L-SDFGRWY/S

Departure

Time 2026-04-28 17:43
Airport Breda International Airport (EHSE)

Arrival

Time N/A
Airport Lelystad Airport (EHLE)
Time Latitude Longitude Altitude Speed Heading
2026-04-28 17:25 51.55443 4.55444 34 ft 0 kts 291°
2026-04-28 17:40 51.55443 4.55443 34 ft 2 kts 296°
2026-04-28 17:40 51.55455 4.55374 35 ft 20 kts 264°
2026-04-28 17:40 51.55418 4.55216 35 ft 12 kts 246°
2026-04-28 17:41 51.55346 4.54958 35 ft 29 kts 247°
2026-04-28 17:41 51.55322 4.54866 35 ft 0 kts 248°
2026-04-28 17:41 51.55319 4.54856 35 ft 2 kts 245°
2026-04-28 17:41 51.55318 4.54853 35 ft 0 kts 244°
2026-04-28 17:42 51.55383 4.54910 34 ft 12 kts 66°
2026-04-28 17:42 51.55388 4.54927 34 ft 8 kts 67°
2026-04-28 17:43 51.55499 4.55328 34 ft 71 kts 67°
2026-04-28 17:43 51.55730 4.56228 268 ft 93 kts 67°
2026-04-28 17:43 51.56018 4.57242 727 ft 110 kts 63°
2026-04-28 17:43 51.56495 4.58444 791 ft 148 kts 52°
2026-04-28 17:44 51.57212 4.59789 1065 ft 161 kts 42°
2026-04-28 17:44 51.58247 4.60773 1078 ft 187 kts 30°
2026-04-28 17:44 51.59503 4.61472 943 ft 199 kts 14°
2026-04-28 17:44 51.60908 4.61191 906 ft 209 kts 345°
2026-04-28 17:45 51.62101 4.59898 1339 ft 209 kts 322°
2026-04-28 17:45 51.62924 4.57967 1755 ft 217 kts 294°
2026-04-28 17:45 51.63053 4.56349 2026 ft 224 kts 269°
2026-04-28 17:45 51.62170 4.53424 2568 ft 222 kts 219°
2026-04-28 17:46 51.60819 4.52387 2877 ft 218 kts 183°
2026-04-28 17:46 51.59387 4.52906 2810 ft 207 kts 142°
2026-04-28 17:46 51.58062 4.53698 2204 ft 210 kts 154°
2026-04-28 17:46 51.57177 4.54292 1780 ft 201 kts 142°
2026-04-28 17:47 51.56008 4.55446 1416 ft 201 kts 138°
2026-04-28 17:47 51.54857 4.56631 1442 ft 188 kts 139°
2026-04-28 17:47 51.53712 4.57608 1459 ft 186 kts 144°
2026-04-28 17:47 51.52866 4.58023 1304 ft 206 kts 174°
2026-04-28 17:48 51.51684 4.55846 890 ft 227 kts 281°
2026-04-28 17:48 51.52527 4.53982 796 ft 200 kts 346°
2026-04-28 17:48 51.53518 4.52670 113 ft 158 kts 348°
2026-04-28 17:48 51.54210 4.52705 603 ft 92 kts 17°
2026-04-28 17:49 51.54797 4.53214 359 ft 92 kts 50°
2026-04-28 17:49 51.55138 4.54022 222 ft 83 kts 63°
2026-04-28 17:49 51.55360 4.54823 58 ft 81 kts 63°
2026-04-28 17:49 51.55493 4.55320 34 ft 0 kts 62°
2026-04-28 17:50 51.55534 4.55466 33 ft 26 kts 66°
2026-04-28 17:50 51.55554 4.55604 33 ft 1 kts 161°
2026-04-28 17:50 51.55506 4.55553 35 ft 10 kts 246°
2026-04-28 17:50 51.55467 4.55409 35 ft 5 kts 246°
2026-04-28 17:51 51.55466 4.55404 35 ft 0 kts 246°
2026-04-28 17:51 51.55464 4.55396 35 ft 6 kts 248°
2026-04-28 17:52 51.55455 4.55364 35 ft 0 kts 250°
2026-04-28 17:52 51.55391 4.55297 35 ft 0 kts 140°
2026-04-28 17:53 51.55386 4.55300 35 ft 0 kts 159°
2026-04-28 17:53 51.55383 4.55301 35 ft 0 kts 158°
2026-04-28 17:53 51.55378 4.55305 35 ft 1 kts 154°
2026-04-28 17:56 51.55443 4.55444 35 ft 0 kts 291°
2026-04-28 18:05 51.55458 4.55380 35 ft 23 kts 272°
2026-04-28 18:05 51.55398 4.55147 35 ft 39 kts 246°
2026-04-28 18:05 51.55319 4.54842 35 ft 1 kts 298°
2026-04-28 18:05 51.55323 4.54829 35 ft 0 kts 302°
2026-04-28 18:06 51.55348 4.54816 34 ft 14 kts 19°
2026-04-28 18:06 51.55372 4.54866 34 ft 0 kts 65°
2026-04-28 18:07 51.55433 4.55077 35 ft 54 kts 65°
2026-04-28 18:07 51.55649 4.55877 166 ft 87 kts 66°
2026-04-28 18:07 51.55868 4.56842 632 ft 102 kts 67°
2026-04-28 18:07 51.56289 4.58028 854 ft 146 kts 52°
2026-04-28 18:08 51.57086 4.59407 850 ft 188 kts 39°
2026-04-28 18:08 51.58333 4.60079 1222 ft 196 kts 11°
2026-04-28 18:08 51.59699 4.59758 1715 ft 201 kts 353°
2026-04-28 18:08 51.61053 4.59174 2196 ft 202 kts 352°
2026-04-28 18:09 51.62418 4.58592 2692 ft 204 kts 353°
2026-04-28 18:09 51.63796 4.58015 3212 ft 205 kts 353°
2026-04-28 18:09 51.65181 4.57438 3715 ft 206 kts 355°
2026-04-28 18:10 51.67943 4.57733 4020 ft 216 kts 24°
2026-04-28 18:10 51.69321 4.58753 4042 ft 218 kts 31°
2026-04-28 18:10 51.70689 4.59818 4043 ft 220 kts 30°
2026-04-28 18:10 51.72053 4.60865 4044 ft 219 kts 30°
2026-04-28 18:11 51.73440 4.61940 4049 ft 220 kts 31°
2026-04-28 18:11 51.74803 4.63000 4179 ft 218 kts 30°
2026-04-28 18:11 51.76179 4.64067 4214 ft 220 kts 31°
2026-04-28 18:11 51.77560 4.65141 4217 ft 221 kts 30°
2026-04-28 18:12 51.78948 4.66222 4219 ft 222 kts 30°
2026-04-28 18:12 51.80345 4.67309 4219 ft 223 kts 31°
2026-04-28 18:12 51.81744 4.68396 4224 ft 223 kts 31°
2026-04-28 18:12 51.83134 4.69476 4208 ft 216 kts 31°
2026-04-28 18:13 51.84451 4.70500 4203 ft 207 kts 31°
2026-04-28 18:13 51.85738 4.71506 4204 ft 204 kts 30°
2026-04-28 18:13 51.87017 4.72507 4202 ft 204 kts 31°
2026-04-28 18:13 51.88279 4.73494 4204 ft 204 kts 32°
2026-04-28 18:14 51.89573 4.74506 4205 ft 204 kts 30°
2026-04-28 18:14 51.90834 4.75491 4210 ft 204 kts 31°
2026-04-28 18:14 51.92109 4.76490 4211 ft 204 kts 31°
2026-04-28 18:14 51.93390 4.77492 4211 ft 204 kts 30°
2026-04-28 18:15 51.94667 4.78494 4212 ft 204 kts 31°
2026-04-28 18:15 51.95949 4.79500 4212 ft 205 kts 31°
2026-04-28 18:15 51.97234 4.80507 4215 ft 206 kts 31°
2026-04-28 18:15 51.98525 4.81521 4218 ft 206 kts 31°
2026-04-28 18:16 51.99818 4.82537 4224 ft 206 kts 31°
2026-04-28 18:16 52.01103 4.83547 4223 ft 205 kts 31°
2026-04-28 18:16 52.02371 4.84546 4222 ft 205 kts 31°
2026-04-28 18:16 52.03652 4.85555 4227 ft 205 kts 30°
2026-04-28 18:17 52.04942 4.86568 4227 ft 205 kts 30°
2026-04-28 18:17 52.06228 4.87579 4227 ft 205 kts 31°
2026-04-28 18:17 52.07375 4.88844 4226 ft 197 kts 53°
2026-04-28 18:17 52.08121 4.90703 4231 ft 196 kts 62°
2026-04-28 18:18 52.08804 4.92635 4234 ft 197 kts 62°
2026-04-28 18:18 52.09471 4.94541 4236 ft 196 kts 62°
2026-04-28 18:18 52.10141 4.96482 4238 ft 197 kts 62°
2026-04-28 18:18 52.10596 4.97802 4237 ft 199 kts 63°
2026-04-28 18:19 52.11495 5.00389 4239 ft 198 kts 63°
2026-04-28 18:19 52.12172 5.02334 4242 ft 198 kts 62°
2026-04-28 18:19 52.12846 5.04298 4239 ft 199 kts 62°
2026-04-28 18:19 52.13519 5.06274 4239 ft 199 kts 63°
2026-04-28 18:20 52.14192 5.08230 4238 ft 196 kts 63°
2026-04-28 18:20 52.14857 5.10143 4240 ft 197 kts 62°
2026-04-28 18:20 52.15532 5.12095 4240 ft 199 kts 63°
2026-04-28 18:20 52.16520 5.13646 4220 ft 206 kts 27°
2026-04-28 18:21 52.17952 5.14019 4236 ft 211 kts
2026-04-28 18:21 52.19428 5.14129 4241 ft 212 kts
2026-04-28 18:21 52.20909 5.14225 4242 ft 214 kts
2026-04-28 18:21 52.22379 5.14456 4244 ft 210 kts 15°
2026-04-28 18:22 52.23778 5.15064 4241 ft 206 kts 25°
2026-04-28 18:22 52.25071 5.16039 4190 ft 206 kts 34°
2026-04-28 18:22 52.26211 5.17443 4003 ft 206 kts 47°
2026-04-28 18:22 52.27168 5.19121 3828 ft 203 kts 51°
2026-04-28 18:23 52.28102 5.20841 3633 ft 201 kts 50°
2026-04-28 18:23 52.29043 5.22518 3450 ft 200 kts 50°
2026-04-28 18:23 52.29985 5.24180 3272 ft 199 kts 50°
2026-04-28 18:23 52.30925 5.25841 3083 ft 197 kts 49°